Location: Hodgeman Centre (historical)
(38.0875°N, 100.0268°W)
Time: 16:58:37
(UTC+00:00)

Daily predictions for brighter satellites

Satellite Brightness Start Highest point End
(mag) Time Altitude Azimuth Time Altitude Azimuth Time Altitude Azimuth
Cosmos 1484 Rocket 2.9 12:01:27 10° N 12:05:22 53° WNW 12:09:16 10° SSW
STARLINK-21 3.7 12:03:09 25° WSW 12:05:24 58° NW 12:09:31 10° NE
Abrixas rocket 2.0 12:06:51 39° W 12:07:39 55° NNW 12:10:38 10° NE
STARLINK-45 3.8 12:06:07 25° W 12:08:14 50° NW 12:12:16 10° NE
Cosmos 1437 3.6 12:05:41 10° S 12:08:37 48° E 12:11:35 10° NNE
SKYMED 3 4.5 12:04:35 10° S 12:08:54 74° W 12:13:15 10° NNW
USA 116 3.6 12:07:39 10° SSE 12:10:46 65° ENE 12:14:10 10° N
STARLINK-76 3.8 12:08:43 22° WSW 12:11:10 52° NW 12:15:14 10° NE
Cosmos 1937 Rocket 4.3 12:08:55 15° WSW 12:12:19 28° WNW 12:16:44 10° N
STARLINK 3.8 12:10:19 21° WSW 12:12:51 50° NW 12:16:53 10° NE
Cosmos 1825 2.1 12:09:38 10° S 12:13:23 89° W 12:17:10 10° N
COBE Rocket 4.4 12:09:13 10° SSW 12:14:03 41° W 12:18:52 10° NNW
STARLINK-32 3.9 12:11:56 20° WSW 12:14:32 49° NW 12:18:34 10° NE
Cosmos 2061 Rocket 3.9 12:09:14 10° SSW 12:15:27 69° W 12:21:40 10° N
STARLINK-40 3.9 12:13:33 19° WSW 12:16:12 47° NW 12:20:13 10° NE
STARLINK-44 3.9 12:15:10 18° WSW 12:17:54 46° NW 12:21:54 10° NE
Cosmos 2173 Rocket 4.2 12:12:08 10° SSW 12:18:06 46° WNW 12:24:04 10° N
Okean O Rocket 1.6 12:14:11 10° NNE 12:18:33 89° ESE 12:22:53 10° SSW
STARLINK-36 4.0 12:16:46 18° WSW 12:19:34 44° NW 12:23:33 10° NE
FENGYUN 3A 3.6 12:19:25 10° N 12:24:50 75° WNW 12:30:12 10° SSW
Cosmos 2150 Rocket 4.2 12:20:10 10° SSW 12:25:30 56° WNW 12:30:51 10° N
STARLINK-35 4.1 12:23:06 15° W 12:26:10 40° NW 12:30:05 10° NE
METEOR-M 4.1 12:21:58 10° N 12:27:16 67° WNW 12:32:33 10° SSW
STARLINK-51 4.2 12:24:45 14° W 12:27:53 38° NW 12:31:47 10° NE
Cosmos 1125 Rocket 3.6 12:22:46 10° SSW 12:28:03 82° ESE 12:33:20 10° NNE
CZ-4B R/B 3.2 12:22:54 10° NNE 12:28:20 84° WNW 12:33:50 10° SSW
Cosmos 2333 Rocket 4.5 12:24:46 10° N 12:29:06 21° NE 12:33:25 10° ESE
STARLINK-30 4.2 12:26:22 14° W 12:29:34 37° NW 12:33:27 10° NE
SJ-12 4.4 12:27:16 10° N 12:31:06 37° WNW 12:34:56 10° SW
STARLINK-33 4.3 12:27:56 13° W 12:31:12 36° NW 12:35:04 10° NE
Cosmos 2233 Rocket 4.3 12:26:04 10° S 12:32:17 77° E 12:38:36 10° N
STARLINK-50 4.3 12:29:31 13° W 12:32:52 35° NNW 12:36:43 10° NE
COSMOS 2487 2.9 12:29:44 10° SW 12:32:55 35° WNW 12:36:09 10° N
SKYMED 2 4.1 12:28:58 10° SSW 12:32:59 38° W 12:37:03 10° NNW
Cosmos 1151 Rocket 3.2 12:31:25 10° NNW 12:35:38 49° W 12:39:48 10° SSW
Cosmos 1864 Rocket 4.5 12:29:38 10° SSW 12:35:41 62° W 12:41:48 10° N
Cosmos 2219 Rocket 4.4 12:31:19 10° N 12:35:43 22° NE 12:40:04 10° ESE
STARLINK-56 4.4 12:32:42 12° W 12:36:11 34° NNW 12:39:59 10° NNE
Starlink (trailer) 4.4 12:34:29 11° W 12:38:03 33° NNW 12:41:49 10° NNE
Cosmos 1328 Rocket 3.9 12:34:15 10° NNW 12:38:18 41° W 12:42:20 10° SSW
CZ-3B R/B 4.4 12:34:25 10° SW 12:38:33 22° S 12:48:05 10° SE
ATLAS 2AS CENTAUR R/B 2.8 12:31:13 10° NW 12:38:45 76° WSW 12:45:36 10° SSE
NOAA 6 4.0 12:33:53 10° N 12:38:58 65° WNW 12:44:00 10° SSW
STARLINK-38 4.5 12:35:56 11° W 12:39:33 32° NNW 12:43:19 10° NNE
Cosmos 1515 Rocket 3.5 12:35:41 10° NNW 12:39:59 68° W 12:44:17 10° S
Cosmos 1743 Rocket 3.5 12:36:26 10° SSW 12:40:44 67° W 12:45:02 10° N
STARLINK-65 4.5 12:37:35 10° W 12:41:16 31° NNW 12:45:00 10° NNE
OAO 3 Rocket 3.8 12:37:55 10° W 12:42:35 49° SSW 12:47:10 10° ESE
ATLAS CENTAUR R/B 2.7 12:50:54 10° WSW 12:55:04 27° NW 12:59:10 10° N
BREEZE-M DEB (TANK) 4.3 12:45:23 10° SW 12:59:53 75° SE 13:03:48 10° ENE
NOSS 3-1 (C) 3.6 23:48:02 10° SW 23:53:25 70° NW 23:59:34 10° NNE
YAOGAN 1 4.4 23:54:43 10° E 23:56:06 11° ENE 23:57:28 10° NE
